Flag for Canada Weather past 2 weeks in Kitchener, Ontario, Canada

Now
82 °F

Sunny.


Feels Like: 84 °F
Forecast: 58 / 81 °F
Wind: 13 mph from Southwest

Location: Waterloo Well

Current Time: Aug 30, 2014 at 1:22:33 PM

Latest Report: Aug 30, 2014 at 1:00 PM


Visibility: 9 mi

Pressure: 29.98 "Hg

Humidity: 55%

Dew point: 64 °F

Location of KitchenerLocation

Historic Weather in Kitchener — Graph

°F

Kitchener temperature yesterday

Maximum temperature yesterday: 73 °F (at 2:00 PM)
Minimum temperature yesterday: 46 °F (at 2:56 AM)
Average temperature yesterday: 59 °F

Past Weeks' High & Low Weather Summary

 TemperatureHumidityPressure
High84 °F (Aug 26, 2:00 PM)100% (Aug 17, 5:00 AM)30.20 "Hg (Aug 17, 5:00 AM)
Low45 °F (Aug 19, 5:03 AM)45% (Aug 25, 3:00 PM)29.82 "Hg (Aug 16, 5:50 PM)
Average64 °F82%30.01 "Hg
* Reported Aug 15 12:00 Noon — Aug 30 12:00 Noon, Kitchener, Weather by CustomWeather, © 2014

Note: Actual official high and low records may vary slightly from our data, if they occured in-between our weather recording intervals... More about our weather records

Advertising

Kitchener weather history for previous 24 hours

 ConditionsComfort  
Time TempWeatherWind HumidityBarometerVisibility
12:00 PM
Aug 30
81 °FSunny.14 mph58%29.99 "Hg9 mi
11:00 AM77 °FSunny.10 mph65%30.01 "Hg9 mi
10:00 AM72 °FPassing clouds.13 mph73%30.02 "Hg9 mi
9:00 AM68 °FPassing clouds.8 mph78%30.03 "Hg9 mi
8:00 AM64 °FSunny.7 mph83%30.04 "Hg9 mi
7:00 AM59 °FPassing clouds.5 mph94%30.04 "Hg9 mi
6:00 AM59 °FClear.2 mph94%30.04 "Hg9 mi
5:00 AM61 °FPassing clouds.5 mph88%30.03 "Hg9 mi
4:00 AM59 °FPassing clouds.3 mph94%30.05 "Hg9 mi
3:00 AM59 °FPassing clouds.No wind94%30.07 "Hg9 mi
2:00 AM59 °FOvercast.No wind94%30.08 "Hg9 mi
1:00 AM57 °FPassing clouds.No wind94%30.10 "Hg9 mi
12:00 AM59 °FPassing clouds.5 mph94%30.10 "Hg9 mi
11:00 PM
Aug 29
59 °FPassing clouds.5 mph94%30.11 "Hg9 mi
10:00 PM61 °FPassing clouds.6 mph83%30.10 "Hg9 mi
9:00 PM64 °FMostly cloudy.10 mph73%30.11 "Hg9 mi
8:00 PM68 °FMostly cloudy.9 mph60%30.10 "Hg9 mi
7:00 PM70 °FPassing clouds.10 mph57%30.11 "Hg9 mi
6:00 PM73 °FPassing clouds.12 mph53%30.11 "Hg9 mi
5:00 PM73 °FPartly sunny.8 mph53%30.11 "Hg9 mi
3:00 PM73 °FPassing clouds.8 mph53%30.14 "Hg9 mi
2:00 PM73 °FSunny.7 mph53%30.15 "Hg9 mi
1:00 PM70 °FSunny.8 mph57%30.17 "Hg9 mi
Weather by CustomWeather, © 2014

See weather overviewHow to use our weather pages